Showing default

EDDA-1 300F, 69018

Orbit data source: Space-Track

EDDA-1 300F, 69018 is an American payload satellite in SSO that was launched on Sun, 03 May 2026 UTC via an FALCON 9 launch vehicle from the Air Force Western Test Range (AFWTR). Payload-class satellites include a variety of spacecraft equipped with specific instruments for various scientific and technological missions. These include communications satellites like Starlink; space stations such as the ISS; scientific satellites like the Hubble; Earth observation satellites from companies like Planet Labs, Umbra, and HawkEye 360; GPS; miniature CubeSats for education and research; and military/defense satellites.

Loading next visibility...
Identifier
69018, 2026-100AQ
Orbit
SSO
Country
Flag of USUS
Related business
None
Manufacturer
Planet
Mission
Operational spacecraft
Bus & Motor
PELICAN, XE AOCS
Mass
160 kg wet, 146 kg dry
Launch date (UTC)
2026-05-03 (2 months ago)
Launch vehicle
FALCON 9
Launch site
Air Force Western Test Range (AFWTR)
Object type
Payload
Rocket body
Debris
Shape & HBR
Unknown shape, 14.5 m
Radar Cross Section
Large (>1 m²)

Expand to show TLE details & history
Last TLE update: 16 hours ago

TLE from 16 hours ago
0 EDDA-1 300F
1 69018U 26100AQ  26175.17969932  .00002680  00000-0  11877-3 0  9993
2 69018  97.4034  72.9239 0002402 131.0511 229.0933 15.22472581  7883
Epoch: 2026-06-24T04:18Z
TLE epoch observation values (Epoch: 2026-06-24T04:18:46.021Z)
Latitude
-0.00004°
Longitude
95.89153°
Altitude
502.561 km
Speed
7.612 km/s
True Right ascension
04h 51m 41s
True Declination
0° 00' 00"
Sunlit
Object was in daylight at epoch
Visualization orbit readout
Latitude
Unknown
Longitude
Unknown
Altitude
Unknown
Speed
Unknown
Apparent Right ascension
Unknown
Apparent Declination
Unknown
Sunlit
N/A
Visualization observer readout
Local Sidereal Time
07:23:57
Azimuth
Unknown
Elevation
Unknown
Doppler factor
Unknown
Orbital elements
Apogee altitude
496.999 km
Perigee altitude
493.697 km
Semi-major axis
6,873.485 km
Eccentricity
0.00024
Inclination
97.4034°
RAAN
72.9239°
Arg. of periapsis
131.0511°
True anomaly
229.0725°
Mean anomaly
229.0933°
Eccentric anomaly
229.0829°
Mean motion
3.80871 °/min
Orbital period
94.52 mins
BSTAR
0.00011877
Loading maneuver chart data...
Computing Atmospheric mass density...
Loading historical data...
Loading historical data...
Loading historical data...
Loading historical data...
Loading historical data...
Loading historical data...
Loading historical data...

Documentation

Showing up to 5 results
|